N3MFL Weather Reports


time (UTC)temp
C
wind
direction
speed
KPH
gust
KPH
rain 1hr
cm
rain 24hr
cm
rain mn
cm
humidity
%
barometer
mb
20260505041358 10 233 3.2 3.2 0.00 0.00 0.00 85 1012.9
20260505040855 10 239 3.2 3.2 0.00 0.00 0.00 85 1012.8
20260505040353 10 232 1.6 3.2 0.00 0.00 0.00 84 1012.6
20260505035850 10 214 0.0 1.6 0.00 0.00 0.00 84 1012.8
20260505035345 10 177 1.6 1.6 0.00 0.00 0.00 83 1012.9
20260505034843 10 197 1.6 1.6 0.00 0.00 0.00 83 1012.7
20260505034339 10 214 1.6 1.6 0.00 0.00 0.00 83 1012.8
20260505033837 10 228 1.6 3.2 0.00 0.00 0.00 82 1012.7
20260505033333 10 180 1.6 1.6 0.00 0.00 0.00 82 1012.7
20260505032832 10 203 1.6 1.6 0.00 0.00 0.00 82 1012.5
20260505032328 10 189 0.0 0.0 0.00 0.00 0.00 82 1012.5
20260505031825 10 219 1.6 1.6 0.00 0.00 0.00 81 1012.5
20260505031321 10 202 1.6 1.6 0.00 0.00 0.00 81 1012.8
20260505030819 10 214 1.6 1.6 0.00 0.00 0.00 80 1012.7
20260505030315 10 169 1.6 1.6 0.00 0.00 0.00 80 1012.8
20260505025810 11 203 0.0 1.6 0.00 0.00 0.00 79 1012.7
20260505025308 11 189 1.6 1.6 0.00 0.00 0.00 79 1012.7
20260505024807 11 211 1.6 1.6 0.00 0.00 0.00 79 1012.8
20260505024304 11 185 0.0 1.6 0.00 0.00 0.00 79 1013.0
20260505023801 11 206 1.6 1.6 0.00 0.00 0.00 78 1012.8
20260505023258 11 218 1.6 1.6 0.00 0.00 0.00 78 1012.7
20260505022755 11 222 3.2 3.2 0.00 0.00 0.00 77 1012.9
20260505022252 11 184 0.0 1.6 0.00 0.00 0.00 77 1012.9
20260505021749 11 196 3.2 4.8 0.00 0.00 0.00 77 1013.0
20260505021246 11 195 1.6 1.6 0.00 0.00 0.00 76 1012.8
20260505020741 11 173 1.6 1.6 0.00 0.00 0.00 76 1013.1
20260505020237 11 220 1.6 3.2 0.00 0.00 0.00 76 1012.7
20260505015734 11 219 3.2 3.2 0.00 0.00 0.00 75 1012.9
20260505015231 11 203 0.0 1.6 0.00 0.00 0.00 74 1012.9
20260505014728 11 208 1.6 1.6 0.00 0.00 0.00 74 1012.9
20260505014225 12 239 1.6 3.2 0.00 0.00 0.00 73 1012.9
20260505013722 12 239 3.2 4.8 0.00 0.00 0.00 72 1012.8
20260505013219 12 241 1.6 1.6 0.00 0.00 0.00 72 1012.8
20260505012717 12 205 3.2 3.2 0.00 0.00 0.00 72 1012.6
20260505012214 12 197 3.2 4.8 0.00 0.00 0.00 71 1012.7
20260505011710 12 221 4.8 6.4 0.00 0.00 0.00 71 1012.6
20260505011208 12 230 3.2 4.8 0.00 0.00 0.00 70 1012.2
20260505010702 12 197 1.6 3.2 0.00 0.00 0.00 70 1012.4
20260505010200 12 183 1.6 3.2 0.00 0.00 0.00 69 1012.3
20260505005655 12 233 1.6 3.2 0.00 0.00 0.00 69 1012.0
20260505005153 12 243 3.2 4.8 0.00 0.00 0.00 68 1011.9
20260505004650 13 242 3.2 3.2 0.00 0.00 0.00 67 1011.7
20260505004146 13 247 4.8 6.4 0.00 0.00 0.00 66 1011.9
20260505003644 13 189 3.2 3.2 0.00 0.00 0.00 65 1011.8
20260505003141 13 173 1.6 1.6 0.00 0.00 0.00 65 1011.6
20260505002637 13 243 1.6 3.2 0.00 0.00 0.00 64 1011.5
20260505002136 13 192 4.8 6.4 0.00 0.00 0.00 62 1011.3
20260505001632 13 168 3.2 4.8 0.00 0.00 0.00 61 1011.2
20260505001130 13 210 3.2 4.8 0.00 0.00 0.00 60 1011.1
20260505000627 13 241 3.2 3.2 0.00 0.00 0.00 59 1011.2
20260505000125 13 180 3.2 3.2 0.00 0.00 0.00 59 1011.1
20260504235621 13 246 3.2 4.8 0.00 0.00 0.00 58 1010.9
20260504235117 14 215 3.2 3.2 0.00 0.00 0.00 58 1011.0
20260504234615 14 212 3.2 3.2 0.00 0.00 0.00 58 1010.8
20260504234112 14 241 3.2 4.8 0.00 0.00 0.00 58 1010.8
20260504233607 14 195 1.6 3.2 0.00 0.00 0.00 57 1010.8
20260504233104 15 182 0.0 0.0 0.00 0.00 0.00 57 1010.9
20260504232601 15 182 1.6 1.6 0.00 0.00 0.00 57 1010.8
20260504232058 15 221 3.2 3.2 0.00 0.00 0.00 54 1010.8
20260504231555 15 212 4.8 6.4 0.00 0.00 0.00 54 1010.5
20260504231051 15 253 4.8 4.8 0.00 0.00 0.00 53 1010.4
20260504230547 15 213 4.8 6.4 0.00 0.00 0.00 54 1010.5
20260504230046 15 172 4.8 4.8 0.00 0.00 0.00 54 1010.3
20260504225543 15 182 6.4 9.7 0.00 0.00 0.00 53 1010.2
20260504225040 16 212 3.2 4.8 0.00 0.00 0.00 52 1010.3
20260504224537 16 203 6.4 9.7 0.00 0.00 0.00 51 1010.1
20260504224034 16 208 3.2 4.8 0.00 0.00 0.00 50 1010.2
20260504223531 16 242 3.2 4.8 0.00 0.00 0.00 49 1010.0
20260504223026 17 203 3.2 4.8 0.00 0.00 0.00 49 1009.9
20260504222523 17 251 4.8 6.4 0.00 0.00 0.00 49 1009.9
20260504222021 17 165 3.2 3.2 0.00 0.00 0.00 48 1009.9
20260504221518 18 244 8.0 9.7 0.00 0.00 0.00 42 1009.9
20260504221015 18 233 4.8 6.4 0.00 0.00 0.00 42 1009.9
20260504220511 19 208 8.0 12.9 0.00 0.00 0.00 41 1009.8
20260504220008 19 242 4.8 6.4 0.00 0.00 0.00 41 1009.7
20260504215505 19 240 6.4 9.7 0.00 0.00 0.00 41 1009.7
20260504215002 19 237 4.8 6.4 0.00 0.00 0.00 42 1009.9
20260504214458 18 221 4.8 4.8 0.00 0.00 0.00 42 1009.7
20260504213954 19 207 8.0 9.7 0.00 0.00 0.00 45 1009.7
20260504213450 19 236 3.2 4.8 0.00 0.00 0.00 41 1009.6
20260504212948 20 243 14.5 20.9 0.00 0.00 0.00 40 1009.5
20260504212444 19 217 6.4 6.4 0.00 0.00 0.00 41 1009.6
20260504211942 19 231 8.0 11.3 0.00 0.00 0.00 41 1009.7
20260504211438 20 251 9.7 11.3 0.00 0.00 0.00 40 1009.5
20260504210936 20 266 8.0 9.7 0.00 0.00 0.00 41 1009.7
20260504210432 19 231 9.7 11.3 0.00 0.00 0.00 40 1009.7
20260504205929 20 241 6.4 6.4 0.00 0.00 0.00 40 1009.4
20260504205427 20 229 3.2 4.8 0.00 0.00 0.00 40 1009.3
20260504204925 20 248 8.0 11.3 0.00 0.00 0.00 40 1009.4
20260504204423 19 206 9.7 12.9 0.00 0.00 0.00 39 1009.5
20260504203922 20 207 6.4 9.7 0.00 0.00 0.00 38 1009.3
20260504203419 20 219 9.7 12.9 0.00 0.00 0.00 38 1009.4
20260504202915 20 183 8.0 11.3 0.00 0.00 0.00 37 1009.3
20260504202412 20 278 8.0 11.3 0.00 0.00 0.00 38 1009.4
20260504201908 20 248 4.8 6.4 0.00 0.00 0.00 37 1009.5
20260504201406 20 264 6.4 6.4 0.00 0.00 0.00 38 1009.5
20260504200903 20 270 14.5 20.9 0.00 0.00 0.00 37 1009.3
20260504200400 20 207 8.0 17.7 0.00 0.00 0.00 36 1009.4
20260504195857 20 298 9.7 11.3 0.00 0.00 0.00 35 1009.5
20260504195352 20 191 9.7 14.5 0.00 0.00 0.00 36 1009.3
20260504194849 20 250 8.0 14.5 0.00 0.00 0.00 35 1009.3
20260504194345 20 235 4.8 4.8 0.00 0.00 0.00 36 1009.5
20260504193841 20 264 6.4 9.7 0.00 0.00 0.00 35 1009.6
20260504193338 20 236 8.0 12.9 0.00 0.00 0.00 34 1009.2
20260504192837 20 232 8.0 12.9 0.00 0.00 0.00 33 1009.6
20260504192334 21 236 4.8 4.8 0.00 0.00 0.00 31 1009.4
20260504191833 21 218 6.4 12.9 0.00 0.00 0.00 34 1009.2
20260504191330 20 279 9.7 12.9 0.00 0.00 0.00 33 1009.3
20260504190825 20 243 8.0 9.7 0.00 0.00 0.00 31 1009.4
20260504190322 20 180 12.9 17.7 0.00 0.00 0.00 33 1009.5
20260504185818 20 237 8.0 12.9 0.00 0.00 0.00 31 1009.8
20260504185315 21 226 6.4 9.7 0.00 0.00 0.00 33 1009.5
20260504184811 21 271 6.4 6.4 0.00 0.00 0.00 32 1009.6
20260504184307 20 259 6.4 6.4 0.00 0.00 0.00 35 1009.7
20260504183803 20 229 11.3 12.9 0.00 0.00 0.00 30 1009.7
20260504183300 20 245 8.0 12.9 0.00 0.00 0.00 32 1009.6
20260504182758 21 246 4.8 6.4 0.00 0.00 0.00 31 1009.8
20260504182255 20 253 1.6 3.2 0.00 0.00 0.00 32 1009.8
20260504181753 20 208 9.7 11.3 0.00 0.00 0.00 31 1009.9
20260504181250 20 221 9.7 14.5 0.00 0.00 0.00 31 1009.9
20260504180749 20 208 8.0 12.9 0.00 0.00 0.00 32 1010.1
20260504180247 20 266 6.4 9.7 0.00 0.00 0.00 32 1010.4
20260504175744 20 263 14.5 20.9 0.00 0.00 0.00 30 1010.0
20260504175241 20 260 1.6 3.2 0.00 0.00 0.00 32 1010.1
20260504174739 20 266 4.8 6.4 0.00 0.00 0.00 33 1010.1
20260504174237 20 253 6.4 11.3 0.00 0.00 0.00 33 1010.1
20260504173733 20 271 8.0 14.5 0.00 0.00 0.00 32 1010.0
20260504173230 20 215 4.8 6.4 0.00 0.00 0.00 31 1010.1
20260504172727 20 278 9.7 12.9 0.00 0.00 0.00 35 1009.8
20260504172223 20 148 6.4 6.4 0.00 0.00 0.00 32 1009.9
20260504171720 20 231 9.7 12.9 0.00 0.00 0.00 31 1009.8
20260504171217 20 209 11.3 16.1 0.00 0.00 0.00 33 1010.2
20260504170713 20 256 8.0 11.3 0.00 0.00 0.00 31 1010.2
20260504170211 19 220 6.4 11.3 0.00 0.00 0.00 31 1010.3
20260504160129 20 207 6.4 9.7 0.00 0.00 0.00 34 1010.9
20260504151056 18 197 3.2 3.2 0.00 0.00 0.00 37 1011.4
20260504150554 18 235 4.8 6.4 0.00 0.00 0.00 36 1011.6
20260504141020 17 156 3.2 3.2 0.00 0.00 0.00 38 1012.1
20260504140516 17 244 6.4 9.7 0.00 0.00 0.00 38 1012.2
20260504130441 16 204 6.4 9.7 0.00 0.00 0.00 39 1012.6
20260504110328 3 159 0.0 0.0 0.00 0.00 0.00 85 1012.7
20260504100246 2 173 0.0 0.0 0.00 0.00 0.00 84 1012.6
20260504081639 5 180 0.0 0.0 0.00 0.00 0.00 76 1012.1
20260504081135 5 178 0.0 0.0 0.00 0.00 0.00 75 1012.2
20260504080632 5 156 0.0 0.0 0.00 0.00 0.00 71 1012.2
20260504080128 5 148 0.0 0.0 0.00 0.00 0.00 74 1012.2
20260504050444 3 168 0.0 0.0 0.00 0.00 0.00 74 1012.1
20260504045942 2 204 0.0 0.0 0.00 0.00 0.00 76 1012.1
20260504045437 2 187 0.0 0.0 0.00 0.00 0.00 79 1012.0